Deep River, CT

8:19 AM EST on February 14, 2016 (GMT -0500)
Chester

Weather History for KSNC - March, 2014

Change the Weather History Date:

Wednesday, March 26, 2014

  Actual Average (KHVN) Record (KHVN)
Temperature  
Mean Temperature 28 °F -  
Max Temperature 33 °F 48 °F 69 °F (1986)
Min Temperature 23 °F 34 °F 25 °F (1972)
Degree Days  
Heating Degree Days 37    
Moisture  
Dew Point 9 °F    
Average Humidity 42    
Maximum Humidity 64    
Minimum Humidity 25    
Precipitation  
Precipitation 0.00 in - - ()
Sea Level Pressure  
Sea Level Pressure 29.79 in    
Wind  
Wind Speed 14 mph (NNW)    
Max Wind Speed 26 mph    
Max Gust Speed 47 mph    
Visibility 10 miles    
Events      
Averages and records for this station are not official NWS values.
T = Trace of Precipitation, MM = Missing Value Source: NWS Daily Summary

Daily Weather History Graph

Daily Weather History Graph

Search for Another Location

Airport or City:

Trip Planner

Search our weather history database for the weather conditions in past years. The results will help you decide how hot, cold, wet, or windy it might be!

Date:

Astronomy

Mar. 26, 2014 Rise Set
Actual Time 6:43 AM EDT 7:08 PM EDT
Civil Twilight 6:15 AM EDT 7:36 PM EDT
Nautical Twilight 5:43 AM EDT 8:09 PM EDT
Astronomical Twilight 5:09 AM EDT 8:42 PM EDT
Moon 3:52 AM EDT (3/26) 2:41 PM EDT (3/26)
Length of Visible Light 13h 20m
Length of Day
12h 25m
Waning Crescent, 22% of the Moon is Illuminated
Mar 26
Waning Crescent
Mar 30
New
Apr 7
First Quarter
Apr 15
Full
Apr 22
Last Quarter

Hourly Weather History & Observations

Time (EDT) Temp. Windchill Dew Point Humidity Pressure Visibility Wind Dir Wind Speed Gust Speed Precip Events Conditions
12:15 AM 32.0 °F 26.4 °F 17.6 °F 55% 29.83 in 10.0 mi NNE 5.8 mph - N/A   Clear
12:35 AM 32.0 °F 24.2 °F 17.6 °F 55% 29.81 in 10.0 mi NNE 9.2 mph - N/A   Clear
12:55 AM 32.0 °F 24.8 °F 15.8 °F 51% 29.79 in 10.0 mi NNE 8.1 mph - N/A   Clear
1:15 AM 32.0 °F 24.2 °F 15.8 °F 51% 29.81 in 10.0 mi NNE 9.2 mph - N/A   Clear
1:35 AM 32.0 °F 24.8 °F 15.8 °F 51% 29.81 in 10.0 mi North 8.1 mph - N/A   Clear
1:55 AM 32.0 °F 23.6 °F 15.8 °F 51% 29.80 in 10.0 mi North 10.4 mph - N/A   Mostly Cloudy
2:15 AM 32.0 °F 24.2 °F 15.8 °F 51% 29.79 in 10.0 mi North 9.2 mph - N/A   Overcast
2:35 AM 32.0 °F 23.6 °F 15.8 °F 51% 29.78 in 10.0 mi NNE 10.4 mph - N/A   Mostly Cloudy
2:55 AM 32.0 °F 23.0 °F 14.0 °F 48% 29.77 in 10.0 mi NNE 11.5 mph 16.1 mph N/A   Partly Cloudy
3:15 AM 32.0 °F 24.2 °F 14.0 °F 48% 29.76 in 10.0 mi NNE 9.2 mph 19.6 mph N/A   Clear
3:35 AM 32.0 °F 22.5 °F 14.0 °F 48% 29.75 in 10.0 mi NNE 12.7 mph 17.3 mph N/A   Mostly Cloudy
3:55 AM 32.0 °F 23.6 °F 14.0 °F 48% 29.74 in 10.0 mi NNE 10.4 mph - N/A   Mostly Cloudy
4:15 AM 32.0 °F 23.0 °F 15.8 °F 51% 29.72 in 10.0 mi NNE 11.5 mph 21.9 mph N/A   Overcast
4:35 AM 32.0 °F 21.2 °F 17.6 °F 55% 29.71 in 10.0 mi North 16.1 mph 25.3 mph N/A   Mostly Cloudy
4:55 AM 30.2 °F 19.3 °F 19.4 °F 64% 29.70 in 10.0 mi NNE 15.0 mph 19.6 mph N/A   Scattered Clouds
5:15 AM 30.2 °F 17.8 °F 19.4 °F 64% 29.69 in 10.0 mi NNE 19.6 mph 26.5 mph N/A   Partly Cloudy
5:35 AM 30.2 °F 18.5 °F 19.4 °F 64% 29.67 in 10.0 mi North 17.3 mph 29.9 mph N/A   Clear
5:55 AM 30.2 °F 18.1 °F 17.6 °F 60% 29.67 in 10.0 mi North 18.4 mph 29.9 mph N/A   Clear
6:15 AM 32.0 °F 21.2 °F 17.6 °F 55% 29.67 in 10.0 mi NNE 16.1 mph 26.5 mph N/A   Clear
6:35 AM 32.0 °F 23.0 °F 17.6 °F 55% 29.67 in 10.0 mi North 11.5 mph 21.9 mph N/A   Clear
6:55 AM 32.0 °F 22.1 °F 15.8 °F 51% 29.67 in 10.0 mi North 13.8 mph 32.2 mph N/A   Clear
7:15 AM 32.0 °F 20.1 °F 15.8 °F 51% 29.68 in 10.0 mi North 19.6 mph 29.9 mph N/A   Clear
7:35 AM 32.0 °F 21.6 °F 15.8 °F 51% 29.68 in 10.0 mi North 15.0 mph 24.2 mph N/A   Clear
7:55 AM 30.2 °F 17.4 °F 15.8 °F 55% 29.68 in 10.0 mi North 20.7 mph 29.9 mph N/A   Clear
8:15 AM 32.0 °F 20.8 °F 14.0 °F 48% 29.68 in 10.0 mi North 17.3 mph 28.8 mph N/A   Clear
8:35 AM 32.0 °F 22.1 °F 14.0 °F 48% 29.69 in 10.0 mi North 13.8 mph 26.5 mph N/A   Clear
8:55 AM 32.0 °F 20.1 °F 14.0 °F 48% 29.69 in 10.0 mi North 19.6 mph 29.9 mph N/A   Clear
9:15 AM 32.0 °F 21.6 °F 14.0 °F 48% 29.69 in 10.0 mi North 15.0 mph 26.5 mph N/A   Clear
9:35 AM 32.0 °F 20.5 °F 12.2 °F 44% 29.70 in 10.0 mi NNW 18.4 mph 29.9 mph N/A   Clear
9:55 AM 32.0 °F 20.5 °F 12.2 °F 44% 29.69 in 10.0 mi NNW 18.4 mph 35.7 mph N/A   Partly Cloudy
10:15 AM 32.0 °F 19.8 °F 12.2 °F 44% 29.69 in 10.0 mi North 20.7 mph 36.8 mph N/A   Partly Cloudy
10:35 AM 32.0 °F 18.4 °F 12.2 °F 44% 29.69 in 10.0 mi NNW 26.5 mph 33.4 mph N/A   Clear
10:55 AM 32.0 °F 20.8 °F 12.2 °F 44% 29.68 in 10.0 mi NNW 17.3 mph 33.4 mph N/A   Partly Cloudy
11:15 AM 32.0 °F 18.6 °F 12.2 °F 44% 29.68 in 10.0 mi NNW 25.3 mph 31.1 mph N/A   Scattered Clouds
11:35 AM 32.0 °F 18.6 °F 12.2 °F 44% 29.68 in 10.0 mi NNW 25.3 mph 38.0 mph N/A   Scattered Clouds
11:55 AM 32.0 °F 20.5 °F 14.0 °F 48% 29.68 in 10.0 mi NW 18.4 mph 34.5 mph N/A   Scattered Clouds
12:15 PM 32.0 °F 18.6 °F 12.2 °F 44% 29.69 in 10.0 mi NNW 25.3 mph 38.0 mph N/A   Scattered Clouds
12:35 PM 32.0 °F 21.2 °F 10.4 °F 41% 29.69 in 10.0 mi NW 16.1 mph 39.1 mph N/A   Scattered Clouds
12:55 PM 32.0 °F 20.5 °F 10.4 °F 41% 29.69 in 10.0 mi NNW 18.4 mph 33.4 mph N/A   Partly Cloudy
1:15 PM 32.0 °F 21.2 °F 10.4 °F 41% 29.69 in 10.0 mi NW 16.1 mph 33.4 mph N/A   Partly Cloudy
1:35 PM 33.8 °F 23.9 °F 8.6 °F 35% 29.69 in 10.0 mi NW 15.0 mph 31.1 mph N/A   Partly Cloudy
1:55 PM 33.8 °F 22.8 °F 6.8 °F 32% 29.70 in 10.0 mi NW 18.4 mph 35.7 mph N/A   Clear
2:15 PM 32.0 °F 18.6 °F 3.2 °F 30% 29.70 in 10.0 mi NW 25.3 mph 41.4 mph N/A   Clear
2:35 PM 32.0 °F 19.5 °F 3.2 °F 30% 29.70 in 10.0 mi NW 21.9 mph 35.7 mph N/A   Partly Cloudy
2:55 PM 32.0 °F 18.9 °F 3.2 °F 30% 29.71 in 10.0 mi NW 24.2 mph 40.3 mph N/A   Clear
3:15 PM 33.8 °F 21.6 °F 1.4 °F 25% 29.72 in 10.0 mi NNW 23.0 mph 33.4 mph N/A   Clear
3:35 PM 32.0 °F 19.8 °F 1.4 °F 27% 29.73 in 10.0 mi NNW 20.7 mph 39.1 mph N/A   Clear
3:55 PM 32.0 °F 18.9 °F 3.2 °F 30% 29.74 in 10.0 mi NNW 24.2 mph 47.2 mph N/A   Partly Cloudy
4:15 PM 33.8 °F 21.9 °F 3.2 °F 28% 29.75 in 10.0 mi NNW 21.9 mph 31.1 mph N/A   Clear
4:35 PM 32.0 °F 19.2 °F 3.2 °F 30% 29.75 in 10.0 mi NW 23.0 mph 36.8 mph N/A   Clear
4:55 PM 33.8 °F 21.6 °F 3.2 °F 28% 29.76 in 10.0 mi NW 23.0 mph 38.0 mph N/A   Clear
5:15 PM 32.0 °F 21.6 °F 3.2 °F 30% 29.78 in 10.0 mi WNW 15.0 mph 31.1 mph N/A   Clear
5:35 PM 32.0 °F 18.4 °F 5.0 °F 32% 29.80 in 10.0 mi NW 26.5 mph 33.4 mph N/A   Clear
5:55 PM 32.0 °F 20.1 °F 3.2 °F 30% 29.82 in 10.0 mi NW 19.6 mph 40.3 mph N/A   Clear
6:15 PM 32.0 °F 20.8 °F 3.2 °F 30% 29.83 in 10.0 mi NW 17.3 mph 34.5 mph N/A   Clear
6:35 PM 32.0 °F 22.1 °F 3.2 °F 30% 29.85 in 10.0 mi NW 13.8 mph 26.5 mph N/A   Clear
6:55 PM 30.2 °F 18.1 °F 1.4 °F 29% 29.87 in 10.0 mi NNW 18.4 mph 31.1 mph N/A   Clear
7:15 PM 30.2 °F 18.5 °F 1.4 °F 29% 29.89 in 10.0 mi NW 17.3 mph 27.6 mph N/A   Clear
7:35 PM 28.4 °F 14.1 °F 1.4 °F 31% 29.91 in 10.0 mi NNW 24.2 mph 28.8 mph N/A   Clear
7:55 PM 28.4 °F 17.0 °F 1.4 °F 31% 29.93 in 10.0 mi NW 15.0 mph 28.8 mph N/A   Clear
8:15 PM 28.4 °F 15.8 °F 1.4 °F 31% 29.95 in 10.0 mi NNW 18.4 mph 35.7 mph N/A   Clear
8:35 PM 26.6 °F 13.8 °F -0.4 °F 31% 29.96 in 10.0 mi NW 17.3 mph 31.1 mph N/A   Clear
8:55 PM 26.6 °F 13.1 °F -0.4 °F 31% 29.98 in 10.0 mi NW 19.6 mph 28.8 mph N/A   Clear
9:15 PM 26.6 °F 14.3 °F -0.4 °F 31% 29.99 in 10.0 mi NNW 16.1 mph 28.8 mph N/A   Clear
9:35 PM 26.6 °F 13.8 °F -0.4 °F 31% 30.01 in 10.0 mi NNW 17.3 mph 26.5 mph N/A   Clear
9:55 PM 26.6 °F 13.4 °F -0.4 °F 31% 30.02 in 10.0 mi NW 18.4 mph 29.9 mph N/A   Clear
10:15 PM 24.8 °F 10.3 °F -0.4 °F 34% 30.02 in 10.0 mi NW 20.7 mph 38.0 mph N/A   Clear
10:35 PM 24.8 °F 10.3 °F -0.4 °F 34% 30.04 in 10.0 mi NW 20.7 mph 26.5 mph N/A   Clear
10:55 PM 24.8 °F 13.4 °F -0.4 °F 34% 30.05 in 10.0 mi NW 12.7 mph 27.6 mph N/A   Clear
11:15 PM 24.8 °F 12.4 °F -0.4 °F 34% 30.07 in 10.0 mi NW 15.0 mph 26.5 mph N/A   Clear
11:35 PM 23.0 °F 9.2 °F 1.4 °F 39% 30.09 in 10.0 mi NW 17.3 mph 28.8 mph N/A   Clear
11:55 PM 23.0 °F 8.7 °F 1.4 °F 39% 30.10 in 10.0 mi NW 18.4 mph 28.8 mph N/A   Clear